Starlink 11162

operational
NORAD ID: 60123 Int'l Des: 2024-118 Owner: SPXS Country: US Constellation: starlink
LEOCIRCULAR

About Starlink 11162

Description loading...

Live Position

Loading 3D Globe...

Upcoming Passes

Altitude History

Altitude vs Time

uPlot chart will show altitude changes over time

Two-Line Element Set

1 60123U 24118L 25350.19460357 .00002899 00000-0 28784-4 0 9999
2 60123 53.1594 272.5524 0000863 75.9723 284.1391 15.69705739 84886
Epoch: Dec 16, 2025 • Age: 16 hours

Current Status

Altitude 364.7 km
Velocity 7.69 km/s
Sub-Earth Point -17.17°S, 64.72°E
Launch Date Jun 24, 2024
Age 1.4 years
Type internet

Technical Details

Classification Payload
Mass 960.00 kg
Dry Mass 910.00 kg
Total Mass 960.00 kg
Length 0.30 m
Diameter 4.10 m
Span 29.00 m
Shape Box + pan
Manufacturer SPXS
Bus Type Starlink V2MD
Phase Status In Orbit
Owner/State SPXS/US

Large Constellations

Loading constellations...